Cherry Point, NC

11:58 PM EST on February 12, 2016 (GMT -0500)
Cherry Point Marine Corps Air Station

Weather History for KNKT - January, 2013

Change the Weather History Date:

Friday, January 25, 2013

  Actual Average Record
Temperature  
Mean Temperature 30 °F -  
Max Temperature 36 °F 51 °F 64 °F (1997)
Min Temperature 25 °F 33 °F 9 °F (2003)
Degree Days  
Heating Degree Days 34    
Moisture  
Dew Point 21 °F    
Average Humidity 67    
Maximum Humidity 92    
Minimum Humidity 44    
Precipitation  
Precipitation 0.18 in - - ()
Sea Level Pressure  
Sea Level Pressure 30.30 in    
Wind  
Wind Speed 7 mph ()    
Max Wind Speed 13 mph    
Max Gust Speed -    
Visibility 7.6 miles    
Events Rain    
Averages and records for this station are not official NWS values.
T = Trace of Precipitation, MM = Missing Value Source: Averaged Metar Reports

Daily Weather History Graph

Daily Weather History Graph

Search for Another Location

Airport or City:

Trip Planner

Search our weather history database for the weather conditions in past years. The results will help you decide how hot, cold, wet, or windy it might be!

Date:

Astronomy

Jan. 25, 2013 Rise Set
Actual Time 7:10 AM EST 5:29 PM EST
Civil Twilight 6:43 AM EST 5:56 PM EST
Nautical Twilight 6:13 AM EST 6:27 PM EST
Astronomical Twilight 5:43 AM EST 6:57 PM EST
Moon 4:24 PM EST (1/25) 5:48 AM EST (1/25)
Length of Visible Light 11h 12m
Length of Day
10h 19m
Waxing Gibbous, 98% of the Moon is Illuminated
Jan 25
Waxing Gibbous
Jan 26
Full
Feb 3
Last Quarter
Feb 10
New
Feb 17
First Quarter

Hourly Weather History & Observations

Time (EST) Temp. Windchill Dew Point Humidity Pressure Visibility Wind Dir Wind Speed Gust Speed Precip Events Conditions
12:54 AM 26.1 °F 15.0 °F 7.0 °F 44% 30.51 in 10.0 mi NNE 12.7 mph - N/A   Clear
1:54 AM 26.1 °F 16.2 °F 7.0 °F 44% 30.51 in 10.0 mi NNE 10.4 mph - N/A   Clear
2:54 AM 26.1 °F 17.6 °F 7.0 °F 44% 30.52 in 10.0 mi North 8.1 mph - N/A   Scattered Clouds
3:54 AM 25.0 °F 17.1 °F 8.1 °F 49% 30.51 in 10.0 mi North 6.9 mph - N/A   Mostly Cloudy
4:54 AM 26.1 °F 17.6 °F 9.0 °F 49% 30.51 in 10.0 mi NNE 8.1 mph - N/A   Mostly Cloudy
5:54 AM 26.1 °F 18.4 °F 9.0 °F 49% 30.50 in 10.0 mi NNE 6.9 mph - N/A   Scattered Clouds
6:54 AM 26.1 °F 16.8 °F 10.0 °F 51% 30.50 in 10.0 mi NNE 9.2 mph - N/A   Mostly Cloudy
7:54 AM 27.0 °F 19.5 °F 10.9 °F 51% 30.49 in 10.0 mi North 6.9 mph - N/A   Mostly Cloudy
8:54 AM 28.0 °F 20.0 °F 10.9 °F 49% 30.48 in 10.0 mi NNE 8.1 mph - N/A   Mostly Cloudy
9:54 AM 30.9 °F 24.3 °F 14.0 °F 50% 30.45 in 10.0 mi East 6.9 mph - N/A   Mostly Cloudy
10:54 AM 34.0 °F 28.0 °F 17.1 °F 50% 30.43 in 10.0 mi ENE 6.9 mph - N/A   Mostly Cloudy
11:54 AM 36.0 °F 29.0 °F 21.0 °F 55% 30.39 in 10.0 mi NNE 9.2 mph - N/A   Mostly Cloudy
12:54 PM 35.1 °F 30.1 °F 21.0 °F 57% 30.32 in 10.0 mi ENE 5.8 mph - N/A   Overcast
1:33 PM 35.6 °F 29.9 °F 21.2 °F 56% 30.31 in 10.0 mi NE 6.9 mph - 0.00 in   Ice Pellets
1:54 PM 35.1 °F 30.1 °F 23.0 °F 61% 30.28 in 10.0 mi East 5.8 mph - 0.00 in   Ice Pellets
2:09 PM 33.8 °F 27.7 °F 23.0 °F 65% 30.25 in 10.0 mi East 6.9 mph - 0.00 in   Overcast
2:54 PM 35.1 °F 30.1 °F 23.0 °F 61% 30.23 in 10.0 mi NE 5.8 mph - 0.00 in   Overcast
3:54 PM 34.0 °F 31.0 °F 25.0 °F 70% 30.21 in 10.0 mi East 3.5 mph - N/A   Overcast
4:30 PM 35.6 °F 28.6 °F 26.6 °F 70% 30.21 in 6.0 mi NE 9.2 mph - 0.00 in Rain Rain
4:54 PM 33.1 °F 26.1 °F 28.0 °F 82% 30.19 in 2.5 mi NNE 8.1 mph - N/A Rain Rain
5:03 PM 33.8 °F 27.7 °F 28.4 °F 81% 30.19 in 2.0 mi NNE 6.9 mph - N/A Rain Rain
5:38 PM 32.0 °F 26.4 °F 28.4 °F 87% 30.16 in 2.5 mi NNE 5.8 mph - N/A Rain Rain
5:54 PM 32.0 °F 27.5 °F 28.9 °F 88% 30.14 in 2.5 mi NE 4.6 mph - N/A Rain Rain
6:54 PM 33.1 °F 30.0 °F 30.0 °F 89% 30.12 in 2.5 mi NW 3.5 mph - 0.04 in Rain Rain
7:54 PM 33.1 °F 27.7 °F 30.9 °F 92% 30.14 in 2.5 mi NW 5.8 mph - 0.02 in Rain Rain
8:54 PM 33.1 °F 23.9 °F 30.9 °F 92% 30.13 in 2.5 mi NNW 12.7 mph - 0.04 in   Overcast
9:37 PM 33.8 °F 26.4 °F 30.2 °F 87% 30.16 in 7.0 mi NW 9.2 mph - 0.02 in   Overcast
9:54 PM 33.1 °F 26.1 °F 30.0 °F 89% 30.14 in 6.0 mi NW 8.1 mph - 0.03 in   Overcast
10:54 PM 33.1 °F 26.9 °F 30.0 °F 89% 30.13 in 7.0 mi West 6.9 mph - 0.03 in   Overcast
11:04 PM 32.0 °F 25.6 °F 28.4 °F 87% 30.14 in 7.0 mi West 6.9 mph - N/A   Overcast
11:54 PM 33.1 °F 28.7 °F 30.0 °F 89% 30.14 in 6.0 mi WNW 4.6 mph - 0.02 in   Overcast